Time,TemperatureF,DewpointF,PressureIn,WindDirection,WindDirectionDegrees,WindSpeedMPH,WindSpeedGustMPH,Humidity,HourlyPrecipIn,Conditions,Clouds,dailyrainin,SolarRadiationWatts/m^2,SoftwareType,DateUTC
2013-06-04 00:03:00,64.0,61.0,-100.00,WSW,254,3.0,5.0,91,0.00,,,0.03,0.000000,,2013-06-04 04:03:00,
2013-06-04 00:33:00,65.0,60.0,-100.00,WNW,301,3.0,7.0,84,0.00,,,0.03,0.000000,,2013-06-04 04:33:00,
2013-06-04 00:42:00,65.0,60.0,-100.00,WNW,301,3.0,7.0,84,0.00,,,0.03,0.000000,,2013-06-04 04:42:00,
2013-06-04 00:53:00,65.0,60.0,-100.00,WNW,301,3.0,7.0,84,0.00,,,0.03,0.000000,,2013-06-04 04:53:00,
2013-06-04 01:02:00,65.0,60.0,-100.00,WNW,301,3.0,7.0,84,0.00,,,0.03,0.000000,,2013-06-04 05:02:00,
2013-06-04 01:32:00,63.0,60.0,-100.00,NW,304,2.0,7.0,89,0.00,,,0.03,0.000000,,2013-06-04 05:32:00,
2013-06-04 01:42:00,63.0,60.0,-100.00,NW,304,2.0,7.0,89,0.00,,,0.03,0.000000,,2013-06-04 05:42:00,
2013-06-04 01:52:00,63.0,60.0,-100.00,NW,304,2.0,7.0,89,0.00,,,0.03,0.000000,,2013-06-04 05:52:00,
2013-06-04 02:02:00,63.0,60.0,-100.00,NW,304,2.0,7.0,89,0.00,,,0.03,0.000000,,2013-06-04 06:02:00,
2013-06-04 02:32:00,61.0,59.0,-100.00,ENE,57,2.0,5.0,93,0.00,,,0.03,0.000000,,2013-06-04 06:32:00,
2013-06-04 02:42:00,61.0,59.0,-100.00,ENE,57,2.0,5.0,93,0.00,,,0.03,0.000000,,2013-06-04 06:42:00,
2013-06-04 02:52:00,61.0,59.0,-100.00,ENE,57,2.0,5.0,93,0.00,,,0.03,0.000000,,2013-06-04 06:52:00,
2013-06-04 03:02:00,61.0,59.0,-100.00,ENE,57,2.0,5.0,93,0.00,,,0.03,0.000000,,2013-06-04 07:02:00,
2013-06-04 03:32:00,60.0,59.0,-100.00,WNW,300,1.0,3.0,97,0.00,,,0.03,0.000000,,2013-06-04 07:32:00,
2013-06-04 03:42:00,60.0,59.0,-100.00,WNW,300,1.0,3.0,97,0.00,,,0.03,0.000000,,2013-06-04 07:42:00,
2013-06-04 03:52:00,60.0,59.0,-100.00,WNW,300,1.0,3.0,97,0.00,,,0.03,0.000000,,2013-06-04 07:52:00,
2013-06-04 04:02:00,60.0,59.0,-100.00,WNW,300,1.0,3.0,97,0.00,,,0.03,0.000000,,2013-06-04 08:02:00,
2013-06-04 04:32:00,60.0,59.0,-100.00,WSW,257,1.0,2.0,97,0.00,,,0.03,0.000000,,2013-06-04 08:32:00,
2013-06-04 04:42:00,60.0,59.0,-100.00,WSW,257,1.0,2.0,97,0.00,,,0.03,0.000000,,2013-06-04 08:42:00,
2013-06-04 04:52:00,60.0,59.0,-100.00,WSW,257,1.0,2.0,97,0.00,,,0.03,0.000000,,2013-06-04 08:52:00,
2013-06-04 05:02:00,60.0,59.0,-100.00,WSW,257,1.0,2.0,97,0.00,,,0.03,0.000000,,2013-06-04 09:02:00,
2013-06-04 05:33:00,60.0,59.0,-100.00,NNE,25,1.0,3.0,97,0.00,,,0.03,0.000000,,2013-06-04 09:33:00,
2013-06-04 05:43:00,60.0,59.0,-100.00,NNE,25,1.0,3.0,97,0.00,,,0.03,0.000000,,2013-06-04 09:43:00,
2013-06-04 05:53:00,60.0,59.0,-100.00,NNE,25,1.0,3.0,97,0.00,,,0.03,0.000000,,2013-06-04 09:53:00,
2013-06-04 06:03:00,60.0,59.0,-100.00,NNE,25,1.0,3.0,97,0.00,,,0.03,0.000000,,2013-06-04 10:03:00,
2013-06-04 06:33:00,60.0,59.0,-100.00,NNW,335,1.0,3.0,96,0.00,,,0.03,0.000000,,2013-06-04 10:33:00,
2013-06-04 06:42:00,60.0,59.0,-100.00,NNW,335,1.0,3.0,96,0.00,,,0.03,0.000000,,2013-06-04 10:42:00,
2013-06-04 06:53:00,60.0,59.0,-100.00,NNW,335,1.0,3.0,96,0.00,,,0.03,0.000000,,2013-06-04 10:53:00,
2013-06-04 07:02:00,60.0,59.0,-100.00,NNW,335,1.0,3.0,96,0.00,,,0.03,0.000000,,2013-06-04 11:02:00,
2013-06-04 07:32:00,62.0,59.0,-100.00,NNW,338,1.0,5.0,89,0.00,,,0.03,10.000000,,2013-06-04 11:32:00,
2013-06-04 07:43:00,62.0,59.0,-100.00,NNW,338,1.0,5.0,89,0.00,,,0.03,10.000000,,2013-06-04 11:43:00,
2013-06-04 07:52:00,62.0,59.0,-100.00,NNW,338,1.0,5.0,89,0.00,,,0.03,10.000000,,2013-06-04 11:52:00,
2013-06-04 08:02:00,62.0,59.0,-100.00,NNW,338,1.0,5.0,89,0.00,,,0.03,10.000000,,2013-06-04 12:02:00,
2013-06-04 08:32:00,69.0,64.0,-100.00,NE,34,2.0,7.0,83,0.00,,,0.03,136.000000,,2013-06-04 12:32:00,
2013-06-04 08:42:00,69.0,64.0,-100.00,NE,34,2.0,7.0,83,0.00,,,0.03,136.000000,,2013-06-04 12:42:00,
2013-06-04 08:53:00,69.0,64.0,-100.00,NE,34,2.0,7.0,83,0.00,,,0.03,136.000000,,2013-06-04 12:53:00,
2013-06-04 09:03:00,69.0,64.0,-100.00,NE,34,2.0,7.0,83,0.00,,,0.03,136.000000,,2013-06-04 13:03:00,
2013-06-04 09:32:00,74.0,66.0,-100.00,SSW,196,3.0,5.0,75,0.00,,,0.03,347.000000,,2013-06-04 13:32:00,
2013-06-04 09:42:00,74.0,66.0,-100.00,SSW,196,3.0,5.0,75,0.00,,,0.03,347.000000,,2013-06-04 13:42:00,
2013-06-04 09:52:00,74.0,66.0,-100.00,SSW,196,3.0,5.0,75,0.00,,,0.03,347.000000,,2013-06-04 13:52:00,
2013-06-04 10:02:00,74.0,66.0,-100.00,SSW,196,3.0,5.0,75,0.00,,,0.03,347.000000,,2013-06-04 14:02:00,
2013-06-04 10:32:00,76.0,60.0,-100.00,NE,41,5.0,10.0,58,0.00,,,0.03,577.000000,,2013-06-04 14:32:00,
2013-06-04 10:43:00,76.0,60.0,-100.00,NE,41,5.0,10.0,58,0.00,,,0.03,577.000000,,2013-06-04 14:43:00,
2013-06-04 10:52:00,76.0,60.0,-100.00,NE,41,5.0,10.0,58,0.00,,,0.03,577.000000,,2013-06-04 14:52:00,
2013-06-04 11:02:00,76.0,60.0,-100.00,NE,41,5.0,10.0,58,0.00,,,0.03,577.000000,,2013-06-04 15:02:00,
2013-06-04 11:33:00,79.0,63.0,-100.00,WSW,242,5.0,9.0,59,0.00,,,0.03,531.000000,,2013-06-04 15:33:00,
2013-06-04 11:42:00,79.0,63.0,-100.00,WSW,242,5.0,9.0,59,0.00,,,0.03,531.000000,,2013-06-04 15:42:00,
2013-06-04 11:53:00,79.0,63.0,-100.00,WSW,242,5.0,9.0,59,0.00,,,0.03,531.000000,,2013-06-04 15:53:00,
2013-06-04 12:03:00,79.0,63.0,-100.00,WSW,242,5.0,9.0,59,0.00,,,0.03,531.000000,,2013-06-04 16:03:00,
2013-06-04 12:33:00,79.0,58.0,-100.00,West,261,6.0,11.0,48,0.00,,,0.03,813.000000,,2013-06-04 16:33:00,
2013-06-04 12:42:00,79.0,58.0,-100.00,West,261,6.0,11.0,48,0.00,,,0.03,813.000000,,2013-06-04 16:42:00,
2013-06-04 12:53:00,79.0,58.0,-100.00,West,261,6.0,11.0,48,0.00,,,0.03,813.000000,,2013-06-04 16:53:00,
2013-06-04 13:03:00,79.0,58.0,-100.00,West,261,6.0,11.0,48,0.00,,,0.03,813.000000,,2013-06-04 17:03:00,
2013-06-04 13:33:00,82.0,59.0,-100.00,SSW,212,3.0,10.0,45,0.00,,,0.03,933.000000,,2013-06-04 17:33:00,
2013-06-04 13:42:00,82.0,59.0,-100.00,SSW,212,3.0,10.0,45,0.00,,,0.03,933.000000,,2013-06-04 17:42:00,
2013-06-04 13:52:00,82.0,59.0,-100.00,SSW,212,3.0,10.0,45,0.00,,,0.03,933.000000,,2013-06-04 17:52:00,
2013-06-04 14:02:00,82.0,59.0,-100.00,SSW,212,3.0,10.0,45,0.00,,,0.03,933.000000,,2013-06-04 18:02:00,
2013-06-04 14:32:00,83.0,58.0,-100.00,SW,229,5.0,13.0,43,0.00,,,0.00,920.000000,,2013-06-04 18:32:00,
2013-06-04 14:42:00,83.0,58.0,-100.00,SW,229,5.0,13.0,43,0.00,,,0.00,920.000000,,2013-06-04 18:42:00,
2013-06-04 14:53:00,83.0,58.0,-100.00,SW,229,5.0,13.0,43,0.00,,,0.00,920.000000,,2013-06-04 18:53:00,
2013-06-04 15:02:00,83.0,58.0,-100.00,SW,229,5.0,13.0,43,0.00,,,0.00,920.000000,,2013-06-04 19:02:00,
2013-06-04 15:33:00,82.0,56.0,-100.00,WSW,240,5.0,10.0,41,0.00,,,0.00,792.000000,,2013-06-04 19:33:00,
2013-06-04 15:42:00,82.0,56.0,-100.00,WSW,240,5.0,10.0,41,0.00,,,0.00,792.000000,,2013-06-04 19:42:00,
2013-06-04 15:52:00,82.0,56.0,-100.00,WSW,240,5.0,10.0,41,0.00,,,0.00,792.000000,,2013-06-04 19:52:00,
2013-06-04 16:03:00,82.0,56.0,-100.00,WSW,240,5.0,10.0,41,0.00,,,0.00,792.000000,,2013-06-04 20:03:00,
2013-06-04 16:32:00,83.0,58.0,-100.00,NNW,332,3.0,11.0,43,0.00,,,0.00,877.000000,,2013-06-04 20:32:00,
2013-06-04 16:42:00,83.0,58.0,-100.00,NNW,332,3.0,11.0,43,0.00,,,0.00,877.000000,,2013-06-04 20:42:00,
2013-06-04 16:53:00,83.0,58.0,-100.00,NNW,332,3.0,11.0,43,0.00,,,0.00,877.000000,,2013-06-04 20:53:00,
2013-06-04 17:02:00,83.0,58.0,-100.00,NNW,332,3.0,11.0,43,0.00,,,0.00,877.000000,,2013-06-04 21:02:00,
2013-06-04 17:33:00,83.0,59.0,-100.00,SSW,194,4.0,9.0,44,0.00,,,0.00,376.000000,,2013-06-04 21:33:00,
2013-06-04 17:42:00,83.0,59.0,-100.00,SSW,194,4.0,9.0,44,0.00,,,0.00,376.000000,,2013-06-04 21:42:00,
2013-06-04 17:53:00,83.0,59.0,-100.00,SSW,194,4.0,9.0,44,0.00,,,0.00,376.000000,,2013-06-04 21:53:00,
2013-06-04 18:02:00,83.0,59.0,-100.00,SSW,194,4.0,9.0,44,0.00,,,0.00,376.000000,,2013-06-04 22:02:00,
2013-06-04 18:33:00,83.0,61.0,-100.00,SSW,209,3.0,9.0,47,0.00,,,0.00,112.000000,,2013-06-04 22:33:00,
2013-06-04 18:42:00,83.0,61.0,-100.00,SSW,209,3.0,9.0,47,0.00,,,0.00,112.000000,,2013-06-04 22:42:00,
2013-06-04 18:52:00,83.0,61.0,-100.00,SSW,209,3.0,9.0,47,0.00,,,0.00,112.000000,,2013-06-04 22:52:00,
2013-06-04 19:02:00,83.0,61.0,-100.00,SSW,209,3.0,9.0,47,0.00,,,0.00,112.000000,,2013-06-04 23:02:00,
2013-06-04 19:32:00,81.0,58.0,-100.00,SW,235,2.0,7.0,46,0.00,,,0.00,257.000000,,2013-06-04 23:32:00,
2013-06-04 19:42:00,81.0,58.0,-100.00,SW,235,2.0,7.0,46,0.00,,,0.00,257.000000,,2013-06-04 23:42:00,
2013-06-04 19:52:00,81.0,58.0,-100.00,SW,235,2.0,7.0,46,0.00,,,0.00,257.000000,,2013-06-04 23:52:00,
2013-06-04 20:02:00,81.0,58.0,-100.00,SW,235,2.0,7.0,46,0.00,,,0.00,257.000000,,2013-06-05 00:02:00,
2013-06-04 20:33:00,73.0,62.0,-100.00,NNW,335,0.0,5.0,69,0.00,,,0.00,108.000000,,2013-06-05 00:33:00,
2013-06-04 20:42:00,73.0,62.0,-100.00,NNW,335,0.0,5.0,69,0.00,,,0.00,108.000000,,2013-06-05 00:42:00,
2013-06-04 20:52:00,73.0,62.0,-100.00,NNW,335,0.0,5.0,69,0.00,,,0.00,108.000000,,2013-06-05 00:52:00,
2013-06-04 21:02:00,73.0,62.0,-100.00,NNW,335,0.0,5.0,69,0.00,,,0.00,108.000000,,2013-06-05 01:02:00,
2013-06-04 21:32:00,68.0,65.0,-100.00,West,266,0.0,2.0,89,0.00,,,0.00,12.000000,,2013-06-05 01:32:00,
2013-06-04 21:42:00,68.0,65.0,-100.00,West,266,0.0,2.0,89,0.00,,,0.00,12.000000,,2013-06-05 01:42:00,
2013-06-04 21:52:00,68.0,65.0,-100.00,West,266,0.0,2.0,89,0.00,,,0.00,12.000000,,2013-06-05 01:52:00,
2013-06-04 22:02:00,68.0,65.0,-100.00,West,266,0.0,2.0,89,0.00,,,0.00,12.000000,,2013-06-05 02:02:00,
2013-06-04 22:32:00,65.0,64.0,-100.00,NNW,330,0.0,2.0,95,0.00,,,0.00,0.000000,,2013-06-05 02:32:00,
2013-06-04 22:42:00,65.0,64.0,-100.00,NNW,330,0.0,2.0,95,0.00,,,0.00,0.000000,,2013-06-05 02:42:00,
2013-06-04 22:52:00,65.0,64.0,-100.00,NNW,330,0.0,2.0,95,0.00,,,0.00,0.000000,,2013-06-05 02:52:00,
2013-06-04 23:02:00,65.0,64.0,-100.00,NNW,330,0.0,2.0,95,0.00,,,0.00,0.000000,,2013-06-05 03:02:00,
2013-06-04 23:33:00,66.0,63.0,-100.00,West,279,1.0,4.0,89,0.00,,,0.00,0.000000,,2013-06-05 03:33:00,
2013-06-04 23:43:00,66.0,63.0,-100.00,West,279,1.0,4.0,89,0.00,,,0.00,0.000000,,2013-06-05 03:43:00,
2013-06-04 23:53:00,66.0,63.0,-100.00,West,279,1.0,4.0,89,0.00,,,0.00,0.000000,,2013-06-05 03:53:00,